KK4MGJ Weather Reports


Display with metric or nautical units.
time (UTC)temp
F
wind
direction
speed
MPH
gust
MPH
rain 1hr
in
rain 24hr
in
rain mn
in
humidity
%
barometer
mb
20260508074824 53 0 1.0 1.0 0.00 0.00 0.00 94 1014.9
20260508074325 53 293 2.0 2.0 0.00 0.00 0.00 94 1014.9
20260508073825 53 0 2.0 2.0 0.00 0.00 0.00 94 1014.9
20260508073325 53 23 2.0 3.0 0.00 0.00 0.00 94 1014.9
20260508072824 53 338 3.0 3.0 0.00 0.00 0.00 94 1014.9
20260508072324 53 338 2.0 2.0 0.00 0.00 0.00 94 1014.9
20260508071824 53 270 2.0 3.0 0.00 0.00 0.00 94 1014.9
20260508071324 53 338 2.0 4.0 0.00 0.00 0.00 94 1014.9
20260508070825 54 270 2.0 3.0 0.00 0.00 0.00 94 1014.6
20260508070324 54 293 2.0 2.0 0.00 0.00 0.00 95 1014.9
20260508065826 54 293 2.0 2.0 0.00 0.00 0.00 95 1014.6
20260508065324 54 338 1.0 1.0 0.00 0.00 0.00 95 1014.6
20260508064824 54 338 0.0 2.0 0.00 0.00 0.00 95 1014.6
20260508064325 54 248 0.0 0.0 0.00 0.00 0.00 95 1014.6
20260508063825 54 23 1.0 0.0 0.00 0.00 0.00 95 1014.6
20260508063324 54 270 1.0 0.0 0.00 0.00 0.00 95 1014.6
20260508062826 54 270 0.0 0.0 0.00 0.00 0.00 95 1014.6
20260508062324 54 293 2.0 2.0 0.00 0.00 0.00 95 1014.6
20260508061824 54 270 0.0 2.0 0.00 0.00 0.00 95 1014.6
20260508061324 54 270 1.0 3.0 0.00 0.00 0.00 95 1014.6
20260508060825 54 270 1.0 1.0 0.00 0.00 0.00 95 1014.6
20260508060326 54 270 0.0 2.0 0.00 0.00 0.00 95 1014.6
20260508055824 54 293 2.0 0.0 0.00 0.00 0.00 95 1014.6
20260508055325 54 270 0.0 3.0 0.00 0.00 0.00 95 1014.6
20260508054824 54 270 0.0 0.0 0.00 0.00 0.00 95 1014.2
20260508054325 54 270 0.0 0.0 0.00 0.00 0.00 95 1014.2
20260508053825 54 270 0.0 0.0 0.00 0.00 0.00 95 1014.6
20260508053324 54 293 0.0 0.0 0.00 0.00 0.00 95 1014.6
20260508052824 54 270 0.0 2.0 0.00 0.00 0.00 94 1014.6
20260508052325 54 338 0.0 0.0 0.00 0.00 0.00 94 1014.2
20260508051825 54 293 0.0 0.0 0.00 0.00 0.00 94 1014.6
20260508051324 54 315 1.0 2.0 0.00 0.00 0.00 94 1014.2
20260508050825 54 293 0.0 0.0 0.00 0.00 0.00 94 1014.2
20260508050325 54 293 0.0 0.0 0.00 0.00 0.00 94 1014.6
20260508045825 54 293 0.0 0.0 0.00 0.00 0.00 94 1014.2
20260508045325 54 0 0.0 0.0 0.00 0.00 0.00 93 1014.2
20260508044824 54 338 0.0 0.0 0.00 0.00 0.00 93 1014.6
20260508044325 54 270 0.0 0.0 0.00 0.00 0.00 93 1014.6
20260508043824 54 315 0.0 0.0 0.00 0.00 0.00 93 1014.2
20260508042836 54 0 0.0 0.0 0.00 0.00 0.00 93 1014.2
20260508042325 54 315 0.0 0.0 0.00 0.00 0.00 93 1013.9
20260508041829 54 315 1.0 0.0 0.00 0.00 0.00 93 1013.5
20260508041324 54 0 0.0 2.0 0.00 0.00 0.00 93 1013.5
20260508040825 54 23 0.0 0.0 0.00 0.00 0.00 93 1013.5
20260508040325 54 68 0.0 0.0 0.00 0.00 0.72 93 1013.5
20260508035824 54 23 0.0 0.0 0.00 0.00 0.72 93 1013.5
20260508035324 54 203 0.0 0.0 0.00 0.00 0.72 93 1013.5
20260508034825 54 203 0.0 0.0 0.00 0.00 0.72 93 1013.5
20260508034325 54 270 0.0 0.0 0.00 0.00 0.72 93 1013.5
20260508033826 54 293 0.0 0.0 0.00 0.00 0.72 93 1013.9
20260508033332 54 248 0.0 0.0 0.00 0.00 0.72 93 1013.5
20260508032824 54 180 0.0 0.0 0.00 0.00 0.72 93 1013.5
20260508032325 54 248 0.0 0.0 0.00 0.00 0.72 93 1013.2
20260508031825 54 293 0.0 0.0 0.00 0.00 0.72 93 1013.2
20260508031324 54 225 0.0 0.0 0.00 0.00 0.72 93 1013.2
20260508030824 54 158 0.0 0.0 0.00 0.00 0.72 93 1013.5
20260508030325 54 0 0.0 0.0 0.00 0.00 0.72 93 1013.5
20260508025824 54 338 1.0 0.0 0.00 0.00 0.72 92 1013.5
20260508025325 54 338 0.0 0.0 0.00 0.00 0.72 92 1013.5
20260508024825 54 315 0.0 0.0 0.00 0.00 0.72 92 1013.2
20260508024324 54 293 0.0 0.0 0.00 0.00 0.72 92 1013.2
20260508023824 54 338 0.0 0.0 0.00 0.00 0.72 92 1012.9
20260508023325 54 338 0.0 0.0 0.00 0.00 0.72 92 1012.9
20260508022824 54 338 0.0 2.0 0.00 0.00 0.72 91 1012.5
20260508022325 54 203 0.0 0.0 0.00 0.00 0.72 91 1012.5
20260508021825 54 203 0.0 0.0 0.00 0.00 0.72 91 1012.9
20260508021324 54 203 0.0 0.0 0.00 0.00 0.72 91 1012.9
20260508020825 54 0 0.0 0.0 0.00 0.00 0.72 91 1012.9
20260508020324 54 90 0.0 0.0 0.00 0.00 0.72 91 1012.9
20260508015825 54 225 0.0 0.0 0.00 0.00 0.72 91 1012.9
20260508015324 54 248 0.0 0.0 0.00 0.00 0.72 90 1012.5
20260508014824 54 90 0.0 0.0 0.00 0.00 0.72 90 1012.2
20260508014324 54 225 0.0 0.0 0.00 0.00 0.72 90 1012.5
20260508013825 55 113 0.0 0.0 0.00 0.00 0.72 90 1012.2
20260508013325 55 203 0.0 0.0 0.00 0.00 0.72 90 1011.9
20260508012825 55 203 0.0 0.0 0.00 0.00 0.72 91 1012.5
20260508012324 55 270 0.0 1.0 0.00 0.00 0.72 90 1011.9
20260508011825 55 135 1.0 0.0 0.00 0.00 0.72 89 1011.9
20260508011324 55 113 1.0 2.0 0.00 0.00 0.72 89 1012.2
20260508010827 55 203 0.0 0.0 0.00 0.00 0.72 89 1012.2
20260508010325 55 45 0.0 0.0 0.00 0.00 0.72 89 1011.9
20260508005825 55 68 0.0 0.0 0.00 0.00 0.72 89 1011.9
20260508005324 55 203 0.0 0.0 0.00 0.00 0.72 89 1011.9
20260508004824 55 68 0.0 0.0 0.00 0.00 0.72 89 1011.9
20260508004324 55 225 0.0 0.0 0.00 0.00 0.72 89 1011.9
20260508003826 55 225 0.0 0.0 0.00 0.00 0.72 89 1011.5
20260508003325 55 338 0.0 2.0 0.00 0.00 0.72 89 1011.5
20260508002824 55 203 1.0 0.0 0.00 0.00 0.72 89 1011.2
20260508002324 56 225 0.0 0.0 0.00 0.00 0.72 89 1011.2
20260508001824 56 248 1.0 1.0 0.00 0.00 0.72 89 1011.2
20260508001325 56 270 1.0 1.0 0.00 0.00 0.72 89 1011.2
20260508000824 56 68 0.0 0.0 0.00 0.00 0.72 89 1011.2
20260508000327 56 270 0.0 0.0 0.00 0.00 0.72 89 1011.2
20260507235824 56 225 1.0 1.0 0.00 0.00 0.72 89 1011.2
20260507235325 56 90 1.0 1.0 0.00 0.00 0.72 89 1011.2
20260507234825 56 338 1.0 1.0 0.00 0.00 0.72 89 1010.8
20260507234324 56 0 1.0 2.0 0.00 0.00 0.72 89 1010.8
20260507233825 56 293 1.0 3.0 0.00 0.00 0.72 89 1010.8
20260507233325 56 45 1.0 0.0 0.00 0.00 0.72 89 1010.8
20260507232825 57 203 0.0 1.0 0.00 0.00 0.72 89 1010.8
20260507232324 57 248 1.0 2.0 0.00 0.00 0.72 89 1010.5
20260507231825 57 0 1.0 2.0 0.00 0.00 0.72 89 1010.5
20260507231325 57 135 0.0 0.0 0.00 0.00 0.72 90 1010.5
20260507230826 57 113 1.0 1.0 0.00 0.00 0.72 90 1010.5
20260507230324 57 45 1.0 1.0 0.00 0.00 0.72 90 1010.5
20260507225825 57 135 1.0 2.0 0.00 0.00 0.72 90 1010.5
20260507225325 57 90 1.0 3.0 0.00 0.00 0.72 91 1010.5
20260507224824 57 293 2.0 2.0 0.00 0.00 0.72 91 1010.5
20260507224324 57 338 1.0 2.0 0.00 0.00 0.72 90 1010.5
20260507223824 57 113 1.0 1.0 0.00 0.00 0.72 90 1010.5
20260507223324 57 23 3.0 4.0 0.00 0.00 0.72 90 1010.5
20260507222825 57 90 2.0 7.0 0.00 0.00 0.72 90 1010.2
20260507222325 57 248 3.0 2.0 0.00 0.00 0.72 89 1010.2
20260507221825 58 0 3.0 2.0 0.00 0.00 0.72 89 1010.2
20260507221324 58 338 3.0 3.0 0.00 0.00 0.72 89 1010.2
20260507220824 58 338 4.0 4.0 0.00 0.00 0.72 89 1009.8
20260507220325 58 270 3.0 4.0 0.00 0.00 0.72 89 1009.8
20260507215824 59 45 2.0 2.0 0.00 0.00 0.72 89 1009.5
20260507215324 59 203 1.0 3.0 0.00 0.00 0.72 89 1009.5
20260507214828 59 23 3.0 2.0 0.00 0.00 0.72 88 1009.5
20260507214325 59 68 4.0 6.0 0.00 0.00 0.72 88 1009.8
20260507213824 60 23 2.0 1.0 0.00 0.00 0.72 89 1009.5
20260507213324 59 270 2.0 0.0 0.00 0.00 0.72 89 1009.1
20260507212826 59 23 3.0 3.0 0.00 0.00 0.72 89 1008.8
20260507212324 59 90 4.0 4.0 0.00 0.00 0.72 89 1008.8
20260507211825 59 68 3.0 5.0 0.00 0.00 0.72 89 1008.8
20260507211325 60 45 4.0 3.0 0.00 0.00 0.72 89 1009.1
20260507210825 60 270 3.0 6.0 0.00 0.00 0.72 89 1008.8
20260507210325 60 0 4.0 4.0 0.00 0.00 0.72 88 1008.5
20260507205824 61 68 1.0 3.0 0.00 0.00 0.72 88 1008.5
20260507205325 61 68 1.0 3.0 0.00 0.00 0.72 88 1008.5
20260507204824 61 68 1.0 1.0 0.00 0.00 0.72 88 1008.5
20260507204326 60 225 2.0 1.0 0.00 0.00 0.72 89 1008.5
20260507203825 61 315 4.0 4.0 0.00 0.00 0.72 89 1008.5
20260507203325 62 338 3.0 5.0 0.00 0.00 0.72 88 1008.5
20260507202825 63 293 4.0 3.0 0.00 0.00 0.72 88 1008.5
20260507202324 64 23 6.0 4.0 0.00 0.00 0.72 87 1008.1
20260507201825 65 23 6.0 6.0 0.00 0.00 0.72 87 1008.1
20260507201324 66 0 5.0 6.0 0.00 0.00 0.72 86 1007.8
20260507200824 68 0 7.0 7.0 0.00 0.00 0.72 86 1007.5
20260507200325 71 315 4.0 7.0 0.00 0.00 0.72 84 1007.5
20260507195825 71 338 4.0 3.0 0.00 0.00 0.72 85 1007.1
20260507195324 73 270 3.0 3.0 0.00 0.00 0.72 87 1006.8
20260507194824 73 248 3.0 5.0 0.00 0.00 0.72 87 1007.1
20260507194325 73 248 3.0 4.0 0.00 0.00 0.72 87 1007.1
20260507193825 73 225 4.0 3.0 0.00 0.00 0.72 88 1007.5
20260507193324 73 248 3.0 2.0 0.00 0.00 0.72 89 1007.5
20260507192824 74 270 2.0 6.0 0.00 0.00 0.72 87 1007.5
20260507192324 72 315 3.0 4.0 0.00 0.00 0.72 89 1007.8
20260507191825 72 203 3.0 5.0 0.00 0.00 0.72 89 1007.8
20260507191324 71 270 3.0 4.0 0.00 0.00 0.72 91 1008.1
20260507190825 71 338 4.0 2.0 0.00 0.00 0.72 91 1008.1
20260507190325 71 270 3.0 4.0 0.00 0.00 0.72 90 1008.1
20260507185826 71 293 4.0 5.0 0.00 0.00 0.72 91 1007.8
20260507185325 72 203 3.0 4.0 0.00 0.00 0.72 91 1007.8
20260507184826 71 203 3.0 2.0 0.00 0.00 0.72 91 1007.8
20260507184324 71 270 3.0 3.0 0.00 0.00 0.72 91 1007.8
20260507183825 72 225 2.0 2.0 0.00 0.00 0.72 90 1007.5
20260507183324 71 203 4.0 4.0 0.00 0.00 0.72 90 1007.8
20260507182825 72 203 3.0 5.0 0.00 0.00 0.72 90 1007.8
20260507182325 72 113 3.0 2.0 0.01 0.00 0.72 91 1007.8
20260507181825 72 203 3.0 2.0 0.01 0.00 0.72 91 1007.8
20260507181325 72 90 3.0 4.0 0.01 0.00 0.72 92 1008.1
20260507180827 72 135 1.0 5.0 0.01 0.00 0.72 94 1008.1
20260507180325 72 270 1.0 2.0 0.02 0.00 0.72 93 1008.1
20260507175824 71 248 1.0 2.0 0.02 0.00 0.72 94 1008.5
20260507175325 70 248 1.0 1.0 0.02 0.00 0.72 95 1008.5
20260507174825 69 293 1.0 3.0 0.02 0.00 0.71 95 1008.5
20260507174325 69 225 2.0 3.0 0.02 0.00 0.70 95 1008.8
20260507173824 69 225 1.0 1.0 0.02 0.00 0.70 95 1009.1
20260507173325 70 225 0.0 0.0 0.02 0.00 0.70 95 1009.1
20260507172825 69 203 0.0 2.0 0.02 0.00 0.70 95 1009.1
20260507172324 69 248 2.0 1.0 0.02 0.00 0.69 95 1009.5
20260507171825 69 270 1.0 4.0 0.02 0.00 0.68 95 1009.5
20260507171325 69 270 1.0 4.0 0.03 0.00 0.68 95 1009.5
20260507170826 69 203 1.0 1.0 0.02 0.00 0.66 95 1009.5
20260507170325 69 68 1.0 2.0 0.02 0.00 0.65 95 1009.8
20260507165825 69 248 2.0 4.0 0.02 0.00 0.64 95 1009.5
20260507165324 69 135 1.0 1.0 0.02 0.00 0.63 95 1009.5
20260507164825 69 158 0.0 3.0 0.02 0.00 0.62 95 1009.5
20260507164325 69 248 1.0 0.0 0.02 0.00 0.61 95 1009.5
20260507163825 69 225 2.0 2.0 0.02 0.00 0.60 95 1009.5
20260507163325 69 225 1.0 1.0 0.03 0.00 0.60 95 1009.8
20260507162826 69 90 2.0 0.0 0.03 0.00 0.60 95 1009.8
20260507162325 69 270 1.0 0.0 0.02 0.00 0.59 95 1009.8
20260507161825 70 180 1.0 2.0 0.02 0.00 0.57 95 1009.8
20260507160900 69 225 1.0 1.0 0.01 0.00 0.54 95 1009.8
20260507160326 69 293 1.0 0.0 0.01 0.00 0.54 95 1009.8
20260507155824 69 225 1.0 0.0 0.01 0.00 0.52 94 1010.2
20260507155325 69 248 2.0 4.0 0.01 0.00 0.51 94 1010.2
20260507154825 70 203 3.0 3.0 0.01 0.00 0.50 93 1010.2
20260507154325 70 90 2.0 2.0 0.00 0.00 0.49 92 1010.5
20260507153825 71 270 2.0 2.0 0.00 0.00 0.48 91 1010.5
20260507153325 71 225 2.0 3.0 0.00 0.00 0.47 91 1010.5
20260507152824 71 248 3.0 4.0 0.00 0.00 0.47 91 1010.5
20260507152324 71 270 2.0 1.0 0.00 0.00 0.47 92 1010.5
20260507151826 71 270 2.0 2.0 0.00 0.00 0.47 91 1010.5
20260507151324 71 270 2.0 4.0 0.00 0.00 0.47 90 1010.5
20260507150826 71 248 2.0 3.0 0.00 0.00 0.47 90 1010.2
20260507150324 71 293 2.0 3.0 0.00 0.00 0.47 91 1010.2
20260507145824 71 270 3.0 6.0 0.00 0.00 0.47 90 1010.2
20260507145326 71 248 2.0 4.0 0.00 0.00 0.47 90 1010.2
20260507144825 71 225 3.0 2.0 0.00 0.00 0.47 91 1010.2
20260507144326 72 225 3.0 3.0 0.00 0.00 0.47 90 1010.2
20260507143824 71 293 2.0 4.0 0.00 0.00 0.47 91 1010.2
20260507143325 71 248 2.0 1.0 0.00 0.00 0.47 92 1010.2
20260507142824 71 248 2.0 5.0 0.00 0.00 0.47 92 1010.2
20260507142325 70 225 1.0 3.0 0.00 0.00 0.47 92 1010.2
20260507141824 70 225 1.0 2.0 0.00 0.00 0.47 92 1010.2
20260507141325 71 270 1.0 2.0 0.00 0.00 0.47 92 1010.2
20260507140824 71 270 0.0 1.0 0.00 0.00 0.47 93 1010.2
20260507140327 70 203 0.0 0.0 0.00 0.00 0.47 93 1010.2
20260507135825 70 225 2.0 1.0 0.00 0.00 0.47 93 1009.8
20260507135324 70 270 0.0 3.0 0.00 0.00 0.47 92 1009.8
20260507134827 70 225 0.0 1.0 0.00 0.00 0.47 92 1009.8
20260507134324 70 270 0.0 0.0 0.00 0.00 0.47 92 1009.8
20260507133824 70 203 1.0 3.0 0.00 0.00 0.47 92 1009.8
20260507133325 70 158 0.0 2.0 0.00 0.00 0.47 93 1009.8
20260507132825 70 225 1.0 0.0 0.00 0.00 0.47 93 1010.2
20260507132324 70 270 1.0 1.0 0.00 0.00 0.47 93 1010.2
20260507131825 70 248 1.0 2.0 0.00 0.00 0.47 93 1010.2
20260507131325 70 270 1.0 2.0 0.00 0.00 0.47 93 1010.2
20260507130825 69 113 2.0 0.0 0.00 0.00 0.47 93 1010.5
20260507130325 69 135 1.0 2.0 0.00 0.00 0.47 94 1010.5
20260507125824 69 135 2.0 2.0 0.00 0.00 0.47 95 1010.5
20260507125325 69 270 2.0 4.0 0.00 0.00 0.47 95 1010.8
20260507124824 68 203 2.0 1.0 0.00 0.00 0.47 95 1010.8
20260507124325 68 90 1.0 2.0 0.00 0.00 0.47 96 1011.2
20260507123825 68 203 2.0 2.0 0.01 0.00 0.47 96 1011.2
20260507123324 68 248 2.0 0.0 0.01 0.00 0.47 96 1011.2
20260507122825 68 158 0.0 1.0 0.01 0.00 0.47 96 1011.5
20260507122324 68 203 0.0 1.0 0.01 0.00 0.47 96 1011.2
20260507121825 68 270 1.0 2.0 0.01 0.00 0.47 96 1011.2
20260507121324 68 270 1.0 4.0 0.01 0.00 0.47 96 1011.5
20260507120824 68 270 2.0 0.0 0.01 0.00 0.47 96 1011.5
20260507120324 68 203 2.0 2.0 0.01 0.00 0.47 96 1011.5
20260507115825 68 270 1.0 3.0 0.01 0.00 0.46 96 1011.5
20260507115325 68 225 4.0 4.0 0.02 0.00 0.46 96 1011.5
20260507114824 68 248 4.0 5.0 0.02 0.00 0.46 96 1011.2
20260507114325 68 225 3.0 3.0 0.02 0.00 0.46 96 1010.8
20260507113825 68 158 2.0 5.0 0.01 0.00 0.44 96 1010.8
20260507113325 67 248 2.0 4.0 0.01 0.00 0.44 96 1010.8
20260507112824 67 270 2.0 4.0 0.01 0.00 0.44 96 1011.2
20260507112325 67 180 1.0 0.0 0.01 0.00 0.42 96 1011.2
20260507111825 67 158 1.0 2.0 0.01 0.00 0.42 96 1011.5
20260507111324 67 270 0.0 0.0 0.01 0.00 0.40 96 1011.5
20260507110826 67 270 1.0 0.0 0.01 0.00 0.40 96 1011.2
20260507110325 67 248 0.0 4.0 0.01 0.00 0.40 96 1011.2
20260507105824 67 0 1.0 0.0 0.01 0.00 0.39 96 1011.2
20260507105324 67 113 2.0 3.0 0.01 0.00 0.38 96 1010.8
20260507104826 67 113 2.0 3.0 0.02 0.00 0.38 96 1011.2
20260507104325 67 90 2.0 2.0 0.02 0.00 0.38 96 1011.2
20260507103825 67 113 1.0 1.0 0.03 0.00 0.38 96 1011.2
20260507103324 67 90 0.0 1.0 0.04 0.00 0.38 96 1010.8
20260507102824 67 135 0.0 0.0 0.04 0.00 0.38 96 1010.8
20260507102325 67 203 0.0 2.0 0.05 0.00 0.38 96 1010.8
20260507101824 67 248 1.0 3.0 0.05 0.00 0.37 96 1010.8
20260507101325 67 23 0.0 0.0 0.05 0.00 0.36 96 1010.8
20260507100825 67 225 0.0 0.0 0.05 0.00 0.36 95 1010.8
20260507100324 67 113 2.0 3.0 0.05 0.00 0.35 95 1011.2
20260507095825 67 135 2.0 5.0 0.05 0.00 0.34 95 1011.2
20260507095325 67 68 2.0 2.0 0.04 0.00 0.32 95 1011.2
20260507094824 67 113 4.0 7.0 0.04 0.00 0.30 95 1011.2
20260507094324 67 293 3.0 2.0 0.04 0.00 0.28 95 1011.5
20260507093825 67 180 2.0 3.0 0.03 0.00 0.24 95 1011.9
20260507093325 67 225 1.0 2.0 0.02 0.00 0.18 95 1011.5
20260507092825 67 248 0.0 0.0 0.01 0.00 0.16 95 1011.9
20260507092330 67 225 0.0 0.0 0.01 0.00 0.15 95 1011.9
20260507091826 66 270 0.0 1.0 0.01 0.00 0.14 95 1011.9
20260507091324 66 270 1.0 1.0 0.01 0.00 0.13 95 1011.5
20260507090825 66 270 0.0 1.0 0.00 0.00 0.12 95 1011.5
20260507090325 66 158 0.0 0.0 0.00 0.00 0.12 95 1011.5
20260507085825 66 158 1.0 0.0 0.00 0.00 0.11 95 1011.5
20260507085324 66 23 0.0 0.0 0.00 0.00 0.10 95 1011.5
20260507084824 66 225 0.0 0.0 0.00 0.00 0.10 95 1011.5
20260507084325 66 293 1.0 1.0 0.00 0.00 0.10 94 1011.5
20260507083824 66 270 0.0 0.0 0.00 0.00 0.10 94 1011.5
20260507083324 66 315 0.0 1.0 0.00 0.00 0.10 94 1011.5
20260507082825 66 180 0.0 0.0 0.00 0.00 0.10 94 1011.5
20260507082324 66 23 0.0 0.0 0.00 0.00 0.10 94 1011.5
20260507081824 66 113 0.0 0.0 0.00 0.00 0.10 94 1011.5
20260507081325 66 135 0.0 3.0 0.00 0.00 0.10 94 1011.9
20260507080824 66 68 0.0 0.0 0.00 0.00 0.10 94 1011.5
20260507080325 66 158 0.0 2.0 0.00 0.00 0.10 94 1011.9
20260507075824 66 180 0.0 0.0 0.00 0.00 0.10 94 1011.5
20260507075325 66 68 0.0 0.0 0.00 0.00 0.10 94 1011.5